Bienvenue à Buzet

Un aérodrome chargé d'histoire

Confluence

La société Conflueunce, école de pilotage d'ULM en Belgique nous accueille chaleureusement sur ses terres.

Cet ancien terrain de Hockey a petit à petit laissé place à la première piste d'ULM approuvé par l'aviation civile en Belgique.

Depuis ses débuts, cet aérodrome est en constante : construction de plusieurs hangars pour abriter les avions, doublement de la superficie, accueil d'une école de parachutisme, d'un restaurant et dernièrement notre société.

Nous avons sélectionné cette plaine d'aviation pour l'ambiance aéronautique que vous ne trouverez nulle part ailleurs, pour la diversité des activités, pour que vos proches puissent admirer les ULM lors de vos vols, pour le restaurant qui vous transportera directement en Italie.

 


Barone 21

Cuisine familiale Toscane

Barone 21

Présent sur l'aérodrome, ce restaurant Italien vous ouvre ses portes tous les jours (excepté le lundi et le mardi).

Disposant de deux autres restaurants sur Bruxelles, le patron à l'accent Italien très prononcé vous fera découvrir les spécialités de la Toscane.

Tous les jours, de nouveaux plats délicieux et copieux vous raviront.

Pour plus d'informations : 071/84.28.11 ou 0476/274.811


Caractéristiques du terrain

Première consigne : attention aux riverains

Image circuit

Afin d'avoir une bonne cohabitation, nous veillons à respecter au maximum les riverains.

La carte ci-contre vous présente les principales consignes locales.

 

Général

  • ICAO : EBBZ
  • Localisation : N50°32'30'', E4°22'52''
  • Fréquence radio : 124.050 MHz
  • Heures d'ouverture : 11h - SS

La piste

  • 16/34, herbe, 350 x 30 m
  • QFU : 155°/335°
  • TODA/LDA : 210 m
  • Elévation : 159 m / 522 ft

Intégration & circuit

  • Intégration par le nord, à 1200 ft QNH.
  • Circuit au nord-est, aussi près que possible de la piste, à 850 ft QNH
  • Attention à la CTR de Charleroi (EBCI) au sud de la piste !

News

Votre panier

Le panier est vide

Météo Charleroi

METAR
EBCI 242050Z 16004KT CAVOK 16/15 Q1009 NOSIG =
EBCI 241710Z 2418/2524 18005KT 9999 SCT035CB SCT045 TEMPO 2418/2421 VRB18G30KT 2500 SHRA TSRA PROB30 TEMPO 2421/2424 4000 SHRA PROB30 TEMPO 2422/2506 2000 MIFG BR PROB40 TEMPO 2512/2521 VRB15G25KT 3000 SHRA TSRA
TAF
EBCI 241710Z 2418/2524 18005KT 9999 SCT035CB SCT045 TEMPO 2418/2421 VRB18G30KT 2500 SHRA TSRA PROB30 TEMPO 2421/2424 4000 SHRA PROB30 TEMPO 2422/2506 2000 MIFG BR PROB40 TEMPO 2512/2521 VRB15G25KT 3000 SHRA TSRA =
Lever / Coucher : 04:01 / 19:38 UTC (Buzet 2021-07-24)